Tracking 25953 objects as of 16-Aug-2022
HD Live streaming from Space Station
objects crossing your sky now

IUS R/B(1)

Track IUS R/B(1) now!


NORAD ID: 19549
Int'l Code: 1988-091C
Perigee: 333.9 km
Apogee: 29,601.2 km
Inclination: 26.3 °
Period: 517.0 minutes
Semi major axis: 21338 km
RCS: 12.0384 m2 (large)
Launch date: September 29, 1988
Source: United States (US)
Launch site: AIR FORCE EASTERN TEST RANGE (AFETR)

Note: This is a ROCKET BODY
aabbcc
Your satellite tracking list
Your tracking list is empty




NASA's NSSDC Master Catalog

Two Line Element Set (TLE):
1 19549U 88091C   22228.23997061  .00000564  00000-0  65011-3 0  9998
2 19549  26.3437 216.7864 6857832 146.9304 285.7882  2.78519656316565
Source of the keplerian elements: AFSPC